LIPZ Weather Reports


time (UTC)temp
F
wind
direction
speed
knots
gust
knots
rain 1hr
in
rain 24hr
in
rain mn
in
humidity
%
barometer
mb
20260507204505 63 90 4.3 0.0 0.00 0.00 0.00 77 1015.0
20260507203004 63 90 4.3 0.0 0.00 0.00 0.00 77 1015.0
20260507201505 63 150 6.1 0.0 0.00 0.00 0.00 77 1014.0
20260507200004 63 150 6.1 0.0 0.00 0.00 0.00 77 1014.0
20260507194504 63 140 7.0 0.0 0.00 0.00 0.00 77 1013.0
20260507193004 63 140 7.0 0.0 0.00 0.00 0.00 77 1013.0
20260507191504 63 140 7.0 0.0 0.00 0.00 0.00 77 1013.0
20260507190004 63 140 7.0 0.0 0.00 0.00 0.00 77 1013.0
20260507184504 63 120 6.1 0.0 0.00 0.00 0.00 77 1013.0
20260507183004 63 120 6.1 0.0 0.00 0.00 0.00 77 1013.0
20260507181503 64 110 6.1 0.0 0.00 0.00 0.00 72 1013.0
20260507180004 64 110 6.1 0.0 0.00 0.00 0.00 72 1013.0
20260507173005 64 90 6.1 0.0 0.00 0.00 0.00 72 1013.0
20260507171504 64 90 6.1 0.0 0.00 0.00 0.00 72 1013.0
20260507170004 64 90 6.1 0.0 0.00 0.00 0.00 72 1013.0
20260507163004 64 150 7.0 0.0 0.00 0.00 0.00 72 1012.0
20260507160005 66 160 0.9 0.0 0.00 0.00 0.00 72 1012.0
20260507154504 66 160 0.9 0.0 0.00 0.00 0.00 72 1012.0
20260507153004 66 160 0.9 0.0 0.00 0.00 0.00 72 1012.0
20260507144503 66 150 10.4 0.0 0.00 0.00 0.00 82 1012.0
20260507141504 70 160 6.1 0.0 0.00 0.00 0.00 60 1012.0
20260507140005 70 160 6.1 0.0 0.00 0.00 0.00 60 1012.0
20260507133004 70 180 6.1 0.0 0.00 0.00 0.00 60 1012.0
20260507131504 68 190 7.0 0.0 0.00 0.00 0.00 64 1012.0
20260507130004 68 190 7.0 0.0 0.00 0.00 0.00 64 1012.0
20260507124504 68 190 7.0 0.0 0.00 0.00 0.00 68 1012.0
20260507123004 68 190 7.0 0.0 0.00 0.00 0.00 68 1012.0
20260507120004 68 190 7.0 0.0 0.00 0.00 0.00 68 1013.0
20260507114504 68 170 6.1 0.0 0.00 0.00 0.00 72 1013.0
20260507113005 68 170 6.1 0.0 0.00 0.00 0.00 72 1013.0
20260507104503 66 170 5.2 0.0 0.00 0.00 0.00 77 1013.0
20260507103005 66 170 5.2 0.0 0.00 0.00 0.00 77 1013.0
20260507100005 63 200 7.0 0.0 0.00 0.00 0.00 88 1013.0
20260507094504 63 160 4.3 0.0 0.00 0.00 0.00 88 1013.0
20260507093004 63 160 4.3 0.0 0.00 0.00 0.00 88 1013.0
20260507090005 63 150 5.2 0.0 0.00 0.00 0.00 88 1013.0
20260507083004 63 90 4.3 0.0 0.00 0.00 0.00 88 1013.0
20260507081504 63 0 2.6 0.0 0.00 0.00 0.00 88 1012.0
20260507080005 63 0 2.6 0.0 0.00 0.00 0.00 88 1012.0
20260507074504 59 10 5.2 0.0 0.00 0.00 0.00 100 1012.0
20260507073004 59 10 5.2 0.0 0.00 0.00 0.00 100 1012.0
20260507071503 59 350 5.2 0.0 0.00 0.00 0.00 100 1012.0
20260507070009 59 350 5.2 0.0 0.00 0.00 0.00 100 1012.0
20260507064504 57 330 5.2 0.0 0.00 0.00 0.00 100 1012.0
20260507060004 57 340 4.3 0.0 0.00 0.00 0.00 100 1012.0
20260507051504 57 350 5.2 0.0 0.00 0.00 0.00 100 1011.0
20260507050005 57 350 5.2 0.0 0.00 0.00 0.00 100 1011.0
20260507044504 57 10 6.1 0.0 0.00 0.00 0.00 100 1011.0
20260507034504 57 350 5.2 0.0 0.00 0.00 0.00 100 1011.0
20260507030004 57 360 2.6 0.0 0.00 0.00 0.00 100 1011.0
20260507023005 55 0 1.7 0.0 0.00 0.00 0.00 100 1011.0
20260507021504 55 320 4.3 0.0 0.00 0.00 0.00 100 1011.0
20260507020004 55 320 4.3 0.0 0.00 0.00 0.00 100 1011.0
20260507014504 57 340 2.6 0.0 0.00 0.00 0.00 93 1011.0
20260507013005 57 340 2.6 0.0 0.00 0.00 0.00 93 1011.0
20260507010004 57 360 1.7 0.0 0.00 0.00 0.00 93 1011.0
20260507004504 57 320 2.6 0.0 0.00 0.00 0.00 100 1011.0
20260507003005 57 320 2.6 0.0 0.00 0.00 0.00 100 1011.0
20260507001503 57 60 1.7 0.0 0.00 0.00 0.00 100 1011.0
20260507000004 57 60 1.7 0.0 0.00 0.00 0.00 100 1011.0
20260506230004 57 0 1.7 0.0 0.00 0.00 0.00 100 1011.0
20260506224503 59 20 4.3 0.0 0.00 0.00 0.00 93 1010.0
20260506214504 61 0 1.7 0.0 0.00 0.00 0.00 93 1010.0
20260506211504 61 0 1.7 0.0 0.00 0.00 0.00 87 1010.0
20260506210005 61 0 1.7 0.0 0.00 0.00 0.00 87 1010.0